Find Kosmos-2232

NORAD ID: 22321 Int'l Des: 1993-006 Owner: PVO Country: RU operational
MEOELLIPTICALHEO_ELLIPTICALSEMI_SYNC

Live Position

Loading 3D Globe...

About Kosmos-2232

Description loading...

Upcoming Passes

Passes for default location (London). Set your location on the main map for personalized predictions.

Altitude History

Loading altitude history...

Two-Line Element Set

1 22321U 93006A 26106.64560593 -.00000032 00000-0 00000-0 0 9997
2 22321 67.2228 187.5530 5438428 126.8673 296.3038 2.00342172243163
Epoch: Apr 16, 2026 • Age: 28 hours

Current Status

Altitude 16429.8 km
Velocity 4.47 km/s
Sub-Earth Point -49.95°S, 94.58°W
Launch Date Jan 26, 1993
Age 33.2 years
Type other

Technical Details

Classification Payload
Mass 1250.00 kg
Dry Mass 1150.00 kg
Total Mass 1250.00 kg
Length 4.00 m
Diameter 2.00 m
Span 5.00 m
Shape Cyl + 2 Pan
Manufacturer NPOL/KOMET
Bus Type Oko
Phase Status In Orbit
Owner/State PVO/RU

Most Searched